Regional Weather Roundup
Issued by NWS

Home | Current Version | Previous Version | Text Only | Print | Product List | Glossary Off
Versions: 1 2 3 4 5 6 7 8 9 10 11 12 13 14 15 16 17 18 19 20 21 22 23 24 25 26 27 28 29 30 31 32 33 34 35 36 37 38 39 40 41 42 43 44 45 46 47 48 49 50

000
ASUS43 KDMX 291507
RWRIA

WEATHER ROUNDUP FOR IOWA
NATIONAL WEATHER SERVICE DES MOINES IA
1000 AM CDT FRI AUG 29 2014

NOTE: "FAIR" INDICATES FEW OR NO CLOUDS BELOW 12,000 FEET WITH NO
SIGNIFICANT WEATHER AND/OR OBSTRUCTIONS TO VISIBILITY.

* - THESE STATIONS ARE NOT NWS STATIONS...THUS NOT UNDER NWS
QUALITY CONTROL.  THEY ALSO DO NOT REPORT WEATHER SUCH
AS PRECIPITATION OR FOG.

IAZ001>003-012>014-020>022-031>034-043>046-291600-
   NORTHWEST IOWA

CITY           SKY/WX    TMP DP  RH WIND       PRES   REMARKS
CARROLL *        N/A     72  68  88 CALM      29.83S
DENISON *      PTSUNNY   70  70 100 S6        29.81S
LE MARS *      CLOUDY    72  70  94 S9        29.81S
ORANGE CITY *  CLOUDY    72  68  88 S7        29.81S
SHELDON *      PTSUNNY   70  70 100 S12       29.80S
SIOUX CITY     LGT RAIN  72  70  93 S5        29.79F FOG
SPENCER        CLOUDY    70  66  87 S10       29.82R
STORM LAKE *   SUNNY     68  68 100 S8        29.83S FOG
$$

IAZ055>058-069>071-079>083-090>094-291600-
   SOUTHWEST IOWA

CITY           SKY/WX    TMP DP  RH WIND       PRES   REMARKS
ATLANTIC *     CLOUDY    72  70  94 SW7       29.83R
AUDUBON *      SUNNY     75  72  88 S8        29.85R
CLARINDA *     MOSUNNY   73  68  83 S8        29.87R
COUNCIL BLFS * MOSUNNY   72  72 100 S8        29.82S
CRESTON *      SUNNY     75  70  83 S13       29.86R
HARLAN  *      MOSUNNY   70  70 100 S6        29.87R
RED OAK *      CLOUDY    73  70  88 S7        29.84R
SHENANDOAH *   SUNNY     73  70  88 SW9       29.86R
$$

IAZ047>049-059>061-072>074-084-291600-
   CENTRAL IOWA

CITY           SKY/WX    TMP DP  RH WIND       PRES   REMARKS
AMES           SUNNY     75  71  87 S12       29.84S
ANKENY *       SUNNY     77  72  83 S9G15     29.84S
CHARITON *     SUNNY     77  68  73 S12       29.87S
DES MOINES     MOSUNNY   78  70  76 S10       29.83F HX  80
GRINNELL*      SUNNY     77  70  78 S8        29.88S
KNOXVILLE *    SUNNY     79  72  78 S12       29.85S HX  82
MARSHALLTOWN   SUNNY     75  71  87 SE10      29.85F
PELLA *        SUNNY     79  72  78 S8        29.87F HX  82
PERRY *        PTSUNNY   73  70  88 S9        29.83F
$$

IAZ004>006-015-016-023>025-035-036-291600-
   NORTH CENTRAL IOWA

CITY           SKY/WX    TMP DP  RH WIND       PRES   REMARKS
ALGONA *       SUNNY     72  68  88 S12       29.83R
CLARION *      SUNNY     75  72  88 S12G21    29.82S
ESTHERVILLE    CLOUDY    70  66  87 S14       29.82R
FORT DODGE *   PTSUNNY   75  70  83 SW14      29.84R
MASON CITY     PTSUNNY   76  69  79 S17G23    29.84S
FOREST CITY *  SUNNY     73  68  83 S8        29.84R
IOWA FALLS *     N/A     75  70  83 S15       29.85S
$$

IAZ007>011-017>019-026>030-037>042-050>054-066-291600-
   NORTHEAST IOWA

CITY           SKY/WX    TMP DP  RH WIND       PRES   REMARKS
CEDAR RAPIDS   SUNNY     76  71  85 S9        29.88F
CHARLES CITY * MOSUNNY   73  70  88 S13G20    29.86R
CLINTON *      MOSUNNY   75  70  83 S9        29.94S
DECORAH *      PTSUNNY   73  70  88 S10G18    29.86S
DUBUQUE        PTSUNNY   72  69  90 S15G21    29.91F
MONTICELLO *   PTSUNNY   75  72  88 S9G17     29.90S
OELWEIN *      PTSUNNY   73  72  94 S15       29.88S
WATERLOO       MOSUNNY   75  70  84 S15       29.84F
$$

IAZ064-065-067-068-078-291600-
   EAST CENTRAL IOWA

CITY           SKY/WX    TMP DP  RH WIND       PRES   REMARKS
DAVENPORT      SUNNY     77  69  76 S12       29.92S
IOWA CITY      SUNNY     76  71  85 S8        29.91S
MT. PLEASANT * SUNNY     79  70  73 S9        29.92R HX  81
MUSCATINE *    SUNNY     79  72  78 S12       29.90S HX  82
QUAD CITIES    SUNNY     78  70  76 S9        29.91S HX  80
$$

IAZ062-063-075>077-085>089-095>099-291600-
   SOUTHEAST IOWA

CITY           SKY/WX    TMP DP  RH WIND       PRES   REMARKS
BURLINGTON     SUNNY     78  71  79 S13       29.92R HX  80
FAIRFIELD *    MOSUNNY   77  70  78 S9        29.90S
FORT MADISON * SUNNY     81  72  74 S9        29.93R HX  84
KEOKUK *       SUNNY     79  72  78 S10G16    29.92R HX  82
OSKALOOSA *      N/A     77  72  83 S10       29.88F
CENTERVILLE *  SUNNY     77  72  83 S7        29.90S
OTTUMWA        SUNNY     77  70  79 S9        29.87F
WASHINGTON *   MOSUNNY   77  73  88 S9        29.90S
$$

ABBREVIATIONS USED IN REMARKS
   TC - TEMPERATURES IN CELSIUS
  WCI - WIND CHILL INDEX
   HX - HEAT INDEX
  VSB - VISIBILITY
$$




USA.gov is the U.S. government's official web portal to all federal, state and local government web resources and services.